Station EFLA1 - 8734536 - E Range Front Light Visibility, AL Image indicating link to RSS feed of recent meteorological observations for station EFLA1


Conditions at EFLA1 as of
(4:48 am CDT)
0948 GMT on 06/23/2024:
     

Click on the graph icon in the table below to see a time series plot of the last five days of that observation.

5-day plot - Air Temperature Air Temperature (ATMP): 81.1 °F
5-day plot - Dew Point Dew Point (DEWP): 75.6 °F
5-day plot - Visibility Visibility (VIS): 5.9 nmi
5-day plot - Heat Index Heat Index (HEAT): 87.4 °F
NOS Water Level Observation Network Water Level
Previous observations
TIME
(CDT)
5-day plot - Wind Direction
WDIR
 
5-day plot - Wind Speed
WSPD
kts
5-day plot - Wind Gust
GST
kts
5-day plot - Wave Height
WVHT
ft
5-day plot - Dominant Wave Period
DPD
sec
5-day plot - Average Wave Period
APD
sec
5-day plot - Mean Wave Direction
MWD
 
5-day plot - Atmospheric Pressure
PRES
in
5-day plot - Pressure Tendency
PTDY
in
5-day plot - Air Temperature
ATMP
°F
5-day plot - Water Temperature
WTMP
°F
5-day plot - Dew Point
DEWP
°F
5-day plot - Salinity
SAL
psu
5-day plot - Visibility
VIS
nmi
5-day plot - Tide (above MLLW)
TIDE
ft
2024-06-23 04:42 am--------- 81.3- 75.7- 5.9-
2024-06-23 04:36 am--------- 81.1- 75.7- 5.9-
2024-06-23 04:30 am--------- 81.1- 75.7- 5.9-
2024-06-23 04:24 am--------- 81.3- 76.1- 5.9-
2024-06-23 04:18 am--------- 81.1- 75.7- 5.9-
2024-06-23 04:12 am--------- 81.1- 75.7- 5.9-
2024-06-23 04:06 am--------- 81.1- 75.9- 5.9-
2024-06-23 04:00 am--------- 81.3- 76.3- 5.9-
2024-06-23 03:54 am--------- 81.1- 76.1- 5.9-
2024-06-23 03:48 am--------- 81.0- 75.7- 5.9-
2024-06-23 03:42 am--------- 81.1- 76.3- 5.9-
2024-06-23 03:36 am--------- 81.1- 76.3- 5.9-
2024-06-23 03:30 am--------- 81.3- 76.3- 5.9-
2024-06-23 03:24 am--------- 81.3- 76.5- 5.9-
2024-06-23 03:18 am--------- 81.3- 76.5- 5.9-
2024-06-23 03:12 am--------- 81.1- 76.5- 5.9-
2024-06-23 03:06 am--------- 81.3- 76.5- 5.9-
2024-06-23 03:00 am--------- 81.1- 76.1- 5.9-
2024-06-23 02:54 am--------- 81.5- 76.5- 5.9-
2024-06-23 02:48 am--------- 81.7- 76.3- 5.9-
2024-06-23 02:42 am--------- 81.7- 76.3- 5.9-
2024-06-23 02:36 am--------- 81.9- 76.3- 5.9-
2024-06-23 02:30 am--------- 82.0- 76.3- 5.9-
2024-06-23 02:24 am--------- 82.0- 76.3- 5.9-
2024-06-23 02:18 am--------- 82.2- 76.1- 5.9-
2024-06-23 02:12 am--------- 82.2- 75.9- 5.9-
2024-06-23 02:06 am--------- 82.4- 76.1- 5.9-
2024-06-23 02:00 am--------- 82.2- 75.6- 5.9-
2024-06-23 01:54 am--------- 82.4- 75.9- 5.9-
2024-06-23 01:48 am--------- 82.6- 75.9- 5.9-
2024-06-23 01:42 am--------- 82.6- 75.7- 5.9-
2024-06-23 01:36 am--------- 82.6- 75.7- 5.9-
2024-06-23 01:30 am--------- 82.8- 76.3- 5.9-
2024-06-23 01:24 am--------- 82.6- 75.9- 5.9-
2024-06-23 01:18 am--------- 82.8- 76.1- 5.9-
2024-06-23 01:12 am--------- 82.8- 75.7- 5.9-
2024-06-23 01:06 am--------- 82.8- 75.6- 5.9-
2024-06-23 01:00 am--------- 82.9- 75.7- 5.9-
2024-06-23 12:54 am--------- 83.1- 75.7- 5.9-
2024-06-23 12:48 am--------- 83.1- 75.0- 5.9-
2024-06-23 12:42 am--------- 83.3- 74.8- 5.9-
2024-06-23 12:36 am--------- 83.7- 74.8- 5.9-
2024-06-23 12:18 am--------- 83.7- 74.8- 5.9-
2024-06-23 12:12 am--------- 83.7- 75.0- 5.9-
2024-06-23 12:06 am--------- 83.8- 74.8- 5.9-
2024-06-23 12:00 am--------- 83.7- 74.7- 5.9-
2024-06-22 11:54 pm--------- 83.8- 74.3- 5.9-
2024-06-22 11:48 pm--------- 83.8- 74.3- 5.9-
2024-06-22 11:42 pm--------- 83.8- 74.7- 5.9-
2024-06-22 11:36 pm--------- 83.8- 74.5- 5.9-
2024-06-22 11:30 pm--------- 83.8- 74.8- 5.9-
2024-06-22 11:24 pm--------- 84.0- 74.8- 5.9-
2024-06-22 11:00 pm--------- 84.0- 75.0- 5.9-
2024-06-22 10:54 pm--------- 83.8- 75.0- 5.9-
2024-06-22 10:48 pm--------- 84.0- 75.6- 5.9-
2024-06-22 10:42 pm--------- 84.2- 75.2- 5.9-
2024-06-22 10:36 pm--------- 84.2- 74.5- 5.9-
2024-06-22 10:30 pm--------- 84.2- 74.1- 5.9-
2024-06-22 10:24 pm--------- 84.4- 74.1- 5.9-
2024-06-22 10:18 pm--------- 84.4- 73.4- 5.9-
2024-06-22 10:12 pm--------- 84.4- 74.3- 5.9-
2024-06-22 10:06 pm--------- 84.6- 73.8- 5.9-
2024-06-22 09:30 pm--------- 84.4- 74.1- 5.9-
2024-06-22 09:24 pm--------- 84.4- 73.9- 5.9-
2024-06-22 09:18 pm--------- 84.4- 73.9- 5.9-
2024-06-22 09:12 pm--------- 84.6- 73.9- 5.9-
2024-06-22 09:06 pm--------- 84.6- 73.9- 5.9-
2024-06-22 08:48 pm--------- 84.9- 73.0- 5.9-
2024-06-22 08:42 pm--------- 85.1- 73.2- 5.9-
2024-06-22 08:36 pm--------- 85.1- 72.3- 5.9-
2024-06-22 08:18 pm--------- 85.3- 72.5- 5.9-
2024-06-22 08:12 pm--------- 85.3- 72.1- 5.9-
2024-06-22 08:06 pm--------- 85.5- 72.9- 5.9-
2024-06-22 08:00 pm--------- 85.3- 71.8- 5.9-
2024-06-22 07:54 pm--------- 85.5- 72.5- 5.9-
2024-06-22 07:48 pm--------- 85.6- 73.0- 5.9-
2024-06-22 07:42 pm--------- 85.6- 72.5- 5.9-
2024-06-22 07:36 pm--------- 85.6- 71.8- 5.9-
2024-06-22 07:30 pm--------- 85.6- 72.1- 5.9-
2024-06-22 07:24 pm--------- 85.8- 72.1- 5.9-
2024-06-22 07:18 pm--------- 85.8- 72.1- 5.9-
2024-06-22 07:12 pm--------- 85.8- 72.5- 5.9-
2024-06-22 07:06 pm--------- 85.8- 72.5- 5.9-
2024-06-22 07:00 pm--------- 85.8- 72.1- 5.9-
2024-06-22 06:54 pm--------- 85.8- 71.8- 5.9-
2024-06-22 06:30 pm--------- 86.0- 72.7- 5.9-
2024-06-22 06:24 pm--------- 86.0- 72.9- 5.9-
2024-06-22 06:18 pm--------- 86.2- 72.9- 5.9-
2024-06-22 06:12 pm--------- 86.2- 72.1- 5.9-
2024-06-22 06:06 pm--------- 86.0- 72.3- 5.9-
2024-06-22 05:48 pm--------- 86.0- 71.8- 5.9-
2024-06-22 05:42 pm--------- 86.0- 71.8- 5.9-
2024-06-22 05:36 pm--------- 86.2- 72.5- 5.9-
2024-06-22 05:30 pm--------- 86.0- 71.4- 5.9-
2024-06-22 05:24 pm--------- 86.2- 71.1- 5.9-
2024-06-22 05:18 pm--------- 86.2- 70.9- 5.9-
2024-06-22 05:12 pm--------- 86.4- 71.1- 5.9-
2024-06-22 05:06 pm--------- 86.2- 70.5- 5.9-
2024-06-22 05:00 pm--------- 86.2- 70.5- 5.9-
2024-06-22 04:54 pm--------- 86.4- 71.2- 5.9-
2024-06-22 04:48 pm--------- 86.4- 69.8- 5.9-
2024-06-22 04:42 pm--------- 86.0- 70.5- 5.9-
2024-06-22 04:36 pm--------- 86.0- 71.2- 5.9-
2024-06-22 04:18 pm--------- 86.2- 72.0- 5.9-
2024-06-22 04:12 pm--------- 86.2- 71.6- 5.9-
2024-06-22 04:06 pm--------- 86.2- 70.9- 5.9-
2024-06-22 04:00 pm--------- 86.4- 70.3- 5.9-
2024-06-22 03:54 pm--------- 86.7- 71.4- 5.9-
2024-06-22 03:30 pm--------- 86.5- 70.9- 5.9-
2024-06-22 03:24 pm--------- 86.5- 71.1- 5.9-
2024-06-22 03:00 pm--------- 86.5- 70.9- 5.9-
2024-06-22 02:54 pm--------- 86.5- 70.7- 5.9-
2024-06-22 02:48 pm--------- 86.7- 71.1- 5.9-
2024-06-22 02:42 pm--------- 86.5- 70.5- 5.9-
2024-06-22 02:36 pm--------- 86.7- 70.0- 5.9-
2024-06-22 02:30 pm--------- 86.7- 69.8- 5.9-
2024-06-22 02:24 pm--------- 87.1- 68.9- 5.9-
2024-06-22 02:18 pm--------- 87.1- 67.1- 5.9-
2024-06-22 02:12 pm--------- 86.9- 68.9- 5.9-
2024-06-22 02:06 pm--------- 87.1- 69.8- 5.9-
2024-06-22 02:00 pm--------- 86.9- 68.5- 5.9-
2024-06-22 01:54 pm--------- 87.1- 69.1- 5.9-
2024-06-22 01:48 pm--------- 86.7- 68.4- 5.9-
2024-06-22 01:42 pm--------- 86.9- 68.9- 5.9-
2024-06-22 01:36 pm--------- 87.1- 68.0- 5.9-
2024-06-22 01:30 pm--------- 87.1- 68.0- 5.9-
2024-06-22 01:24 pm--------- 87.1- 67.1- 5.9-
2024-06-22 01:18 pm--------- 87.1- 66.7- 5.9-
2024-06-22 01:12 pm--------- 86.9- 66.0- 5.9-
2024-06-22 01:06 pm--------- 86.9- 66.0- 5.9-
2024-06-22 01:00 pm--------- 86.7- 65.7- 5.9-
2024-06-22 12:54 pm--------- 86.4- 67.6- 5.9-
2024-06-22 12:48 pm--------- 85.8- 68.7- 5.9-
2024-06-22 12:42 pm--------- 85.3- 70.5- 5.9-
2024-06-22 12:36 pm--------- 85.1- 71.8- 4.3-
2024-06-22 12:30 pm--------- 84.9- 72.3- 4.3-
2024-06-22 12:24 pm--------- 84.6- 72.9- 5.9-
2024-06-22 12:18 pm--------- 84.4- 73.0- 5.9-
2024-06-22 12:12 pm--------- 84.0- 73.2- 5.9-
2024-06-22 12:06 pm--------- 83.8- 73.9- 5.9-
2024-06-22 12:00 pm--------- 83.5- 73.6- 5.9-
2024-06-22 11:54 am--------- 83.7- 73.8- 5.9-
2024-06-22 11:48 am--------- 83.8- 73.9- 5.9-
2024-06-22 11:42 am--------- 83.3- 73.2- 5.9-
2024-06-22 11:36 am--------- 83.7- 73.8- 5.9-
2024-06-22 11:30 am--------- 83.3- 73.2- 5.9-
2024-06-22 11:24 am--------- 83.1- 73.4- 5.9-
2024-06-22 11:18 am--------- 83.1- 73.6- 5.9-
2024-06-22 11:12 am--------- 83.1- 73.4- 5.9-
2024-06-22 11:06 am--------- 84.4- 72.9- 5.9-
2024-06-22 11:00 am--------- 85.6- 73.6- 5.9-
2024-06-22 10:54 am--------- 85.6- 73.4- 5.9-
2024-06-22 10:30 am--------- 83.5- 73.2- 5.9-
2024-06-22 10:24 am--------- 84.2- 73.8- 0.6-
2024-06-22 10:18 am--------- 83.8- 73.8- 0.6-
2024-06-22 10:12 am--------- 82.6- 73.6- 0.6-
2024-06-22 10:06 am--------- 82.0- 73.4- 0.6-
2024-06-22 10:00 am--------- 82.0- 73.4- 3.2-
2024-06-22 09:54 am--------- 82.2- 73.2- 5.9-
2024-06-22 09:48 am--------- 82.6- 73.2- 5.9-
2024-06-22 09:42 am--------- 81.5- 73.8- 5.9-
2024-06-22 09:36 am--------- 81.1- 72.7- 5.9-
2024-06-22 09:30 am--------- 81.9- 73.2- 4.9-
2024-06-22 09:24 am--------- 81.3- 73.4- 5.9-
2024-06-22 09:18 am--------- 80.8- 73.2- 5.9-
2024-06-22 09:12 am--------- 80.8- 73.0- 5.9-
2024-06-22 09:06 am--------- 80.4- 73.8- 5.9-
2024-06-22 08:48 am--------- 80.1- 72.7- 5.9-
2024-06-22 08:42 am--------- 81.0- 72.7- 5.9-
2024-06-22 08:36 am--------- 80.2- 72.9- 5.9-
2024-06-22 08:30 am--------- 80.8- 73.2- 1.7-
2024-06-22 08:24 am--------- 81.3- 73.4- 4.9-
2024-06-22 08:18 am--------- 81.0- 73.4- 4.9-
2024-06-22 08:12 am--------- 81.0- 73.0- 5.9-
2024-06-22 08:06 am--------- 82.4- 72.9- 5.9-
2024-06-22 08:00 am--------- 82.6- 72.9- 0.6-
2024-06-22 07:54 am--------- 82.2- 72.9- 4.3-
2024-06-22 07:18 am--------- 81.5- 72.7- 4.3-
2024-06-22 07:12 am--------- 81.5- 72.7- 0.8-
2024-06-22 07:06 am--------- 81.7- 72.9- 2.4-
2024-06-22 06:48 am--------- 81.7- 73.4- 0.9-
2024-06-22 06:42 am--------- 81.3- 72.5- 0.9-
2024-06-22 06:36 am--------- 81.1- 72.9- 2.4-
2024-06-22 06:30 am--------- 80.8- 73.0- 1.7-
2024-06-22 06:24 am--------- 80.4- 73.2- 3.2-
2024-06-22 06:00 am--------- 79.5- 72.9- 5.9-
2024-06-22 05:54 am--------- 79.5- 72.7- 5.9-
2024-06-22 05:48 am--------- 79.7- 73.0- 5.9-
2024-06-22 05:42 am--------- 79.3- 72.3- 5.9-
2024-06-22 05:36 am--------- 79.5- 73.4- 5.9-
2024-06-22 05:30 am--------- 79.7- 73.4- 5.9-
2024-06-22 05:24 am--------- 79.9- 73.6- 5.9-
2024-06-22 05:18 am--------- 79.9- 73.2- 5.9-
2024-06-22 05:12 am--------- 79.7- 72.7- 5.9-
2024-06-22 05:06 am--------- 80.2- 73.8- 5.9-
2024-06-22 05:00 am--------- 80.2- 73.6- 5.9-
2024-06-22 04:54 am--------- 80.1- 73.2- 5.9-